Bakersfield, CA

7:04 PM PDT on September 27, 2016 (GMT -0700)
Meadows

Weather History for KBFL - June, 2013

Change the Weather History Date:

Friday, June 21, 2013

  Actual Average Record
Temperature  
Mean Temperature 75 °F 79 °F  
Max Temperature 89 °F 92 °F 110 °F (1973)
Min Temperature 60 °F 66 °F 46 °F (1907)
Degree Days  
Heating Degree Days 0    
Month to date heating degree days 0  
Since 1 June heating degree days 0  
Since 1 July heating degree days 1829  
Cooling Degree Days 10    
Month to date cooling degree days 302  
Year to date cooling degree days 681  
Since 1 June cooling degree days 302  
Growing Degree Days 24 (Base 50)    
Moisture  
Dew Point 38 °F    
Average Humidity 27    
Maximum Humidity 37    
Minimum Humidity 16    
Precipitation  
Precipitation 0.00 in 0.00 in 0.00 in (2016)
Month to date precipitation 0.00 0.07  
Year to date precipitation 2.36 4.38  
Since 1 July precipitation 3.15  
Snow  
Snow 0.00 in - - ()
Month to date snowfall 0.0  
Since 1 June snowfall 0.0  
Since 1 July snowfall 0.0  
Snow Depth 0.00 in    
Sea Level Pressure  
Sea Level Pressure 29.88 in    
Wind  
Wind Speed 7 mph (NNW)    
Max Wind Speed 15 mph    
Max Gust Speed 20 mph    
Visibility 10 miles    
Events      
T = Trace of Precipitation, MM = Missing Value Source: NWS Daily Summary

Daily Weather History Graph

Daily Weather History Graph

Search for Another Location

Airport or City:

Trip Planner

Search our weather history database for the weather conditions in past years. The results will help you decide how hot, cold, wet, or windy it might be!

Date:

Astronomy

Jun. 21, 2013 Rise Set
Actual Time 5:41 AM PDT 8:14 PM PDT
Civil Twilight 5:11 AM PDT 8:44 PM PDT
Nautical Twilight 4:34 AM PDT 9:21 PM PDT
Astronomical Twilight 3:53 AM PDT 10:02 PM PDT
Moon 6:33 PM PDT (6/21) 3:58 AM PDT (6/21)
Length of Visible Light 15h 33m
Length of Day
14h 33m
Waxing Gibbous, 96% of the Moon is Illuminated
Jun 21
Waxing Gibbous
Jun 23
Full
Jun 29
Last Quarter
Jul 8
New
Jul 15
First Quarter

Hourly Weather History & Observations

Time (PDT) Temp. Dew Point Humidity Pressure Visibility Wind Dir Wind Speed Gust Speed Precip Events Conditions
12:54 AM 66.9 °F 39.0 °F 36% 29.89 in 10.0 mi NNW 6.9 mph - N/A   Clear
1:54 AM 69.1 °F 39.9 °F 35% 29.88 in 10.0 mi NNW 12.7 mph - N/A   Clear
2:54 AM 68.0 °F 39.0 °F 35% 29.89 in 10.0 mi North 8.1 mph - N/A   Clear
3:54 AM 68.0 °F 36.0 °F 31% 29.88 in 10.0 mi NNE 3.5 mph - N/A   Clear
4:54 AM 66.0 °F 36.0 °F 33% 29.88 in 10.0 mi North 4.6 mph - N/A   Clear
5:54 AM 64.0 °F 37.9 °F 38% 29.89 in 10.0 mi NNE 4.6 mph - N/A   Clear
6:54 AM 68.0 °F 37.9 °F 33% 29.91 in 10.0 mi North 3.5 mph - N/A   Clear
7:54 AM 70.0 °F 37.9 °F 31% 29.93 in 10.0 mi NW 5.8 mph - N/A   Clear
8:54 AM 73.0 °F 37.9 °F 28% 29.94 in 10.0 mi NNW 8.1 mph - N/A   Clear
9:54 AM 75.0 °F 39.9 °F 28% 29.94 in 10.0 mi West 5.8 mph - N/A   Clear
10:54 AM 77.0 °F 41.0 °F 28% 29.94 in 10.0 mi West 6.9 mph - N/A   Clear
11:54 AM 79.0 °F 41.0 °F 26% 29.94 in 10.0 mi Variable 5.8 mph - N/A   Clear
12:54 PM 82.0 °F 41.0 °F 23% 29.92 in 10.0 mi NNW 9.2 mph - N/A   Clear
1:54 PM 82.9 °F 42.1 °F 24% 29.90 in 10.0 mi West 10.4 mph - N/A   Clear
2:54 PM 86.0 °F 43.0 °F 22% 29.88 in 10.0 mi WNW 12.7 mph 16.1 mph N/A   Clear
3:54 PM 88.0 °F 41.0 °F 19% 29.87 in 10.0 mi NW 9.2 mph 16.1 mph N/A   Clear
4:54 PM 88.0 °F 37.9 °F 17% 29.85 in 10.0 mi WNW 11.5 mph 17.3 mph N/A   Clear
5:54 PM 88.0 °F 37.0 °F 16% 29.82 in 10.0 mi WNW 10.4 mph - N/A   Clear
6:54 PM 87.1 °F 36.0 °F 16% 29.82 in 10.0 mi WNW 10.4 mph - N/A   Clear
7:54 PM 84.9 °F 36.0 °F 17% 29.82 in 10.0 mi NW 6.9 mph - N/A   Clear
8:54 PM 79.0 °F 37.0 °F 22% 29.83 in 10.0 mi North 4.6 mph - N/A   Clear
9:54 PM 78.1 °F 36.0 °F 22% 29.84 in 10.0 mi North 5.8 mph - N/A   Clear
10:54 PM 78.1 °F 35.1 °F 21% 29.85 in 10.0 mi North 5.8 mph - N/A   Clear
11:54 PM 73.0 °F 36.0 °F 26% 29.85 in 10.0 mi North 3.5 mph - N/A   Clear